WZZ6901 EPWR-EDLW

Flight info

Callsign WZZ6901
Flight time 1h 10m
Altitude 34000
Route ULGIL Z348 RENDO M748 BOLBO DCT HLZ L980 OSNAD M170 HMM N853 DOMEG DOMEG2A
Aircraft A321/M-SDE1E2E3FGIJ1J4RWXY/LB1

Departure

Time 2026-05-04 11:47
Airport Copernicus Wrocław Airport (EPWR)

Arrival

Time 2026-05-04 12:57
Airport Dortmund Airport (EDLW)
Time Latitude Longitude Altitude Speed Heading
2026-05-04 11:16 51.10868 16.87989 403 ft 0 kts 26°
2026-05-04 11:33 51.10857 16.87981 403 ft 4 kts 26°
2026-05-04 11:34 51.10833 16.87965 400 ft 4 kts 11°
2026-05-04 11:34 51.10808 16.87965 400 ft 4 kts 336°
2026-05-04 11:34 51.10791 16.87986 401 ft 1 kts 296°
2026-05-04 11:34 51.10789 16.87993 402 ft 0 kts 296°
2026-05-04 11:37 51.10789 16.87991 402 ft 1 kts 296°
2026-05-04 11:37 51.10795 16.87975 403 ft 3 kts 296°
2026-05-04 11:37 51.10805 16.87941 402 ft 4 kts 296°
2026-05-04 11:38 51.10821 16.87890 403 ft 6 kts 296°
2026-05-04 11:38 51.10841 16.87822 403 ft 8 kts 296°
2026-05-04 11:38 51.10867 16.87738 403 ft 9 kts 296°
2026-05-04 11:38 51.10898 16.87639 400 ft 11 kts 296°
2026-05-04 11:39 51.10933 16.87525 403 ft 12 kts 296°
2026-05-04 11:39 51.10926 16.87405 402 ft 13 kts 213°
2026-05-04 11:40 51.10515 16.87795 402 ft 19 kts 115°
2026-05-04 11:41 51.10482 16.87859 402 ft 1 kts 146°
2026-05-04 11:41 51.10478 16.87872 402 ft 2 kts 114°
2026-05-04 11:41 51.10473 16.87899 403 ft 3 kts 106°
2026-05-04 11:41 51.10466 16.87941 403 ft 4 kts 106°
2026-05-04 11:42 51.10452 16.87984 403 ft 4 kts 142°
2026-05-04 11:42 51.10438 16.88021 404 ft 4 kts 116°
2026-05-04 11:42 51.10432 16.88058 404 ft 3 kts 104°
2026-05-04 11:42 51.10425 16.88087 405 ft 3 kts 114°
2026-05-04 11:43 51.10418 16.88110 405 ft 2 kts 117°
2026-05-04 11:43 51.10403 16.88153 406 ft 9 kts 119°
2026-05-04 11:43 51.10360 16.88279 402 ft 15 kts 117°
2026-05-04 11:43 51.10312 16.88434 405 ft 16 kts 116°
2026-05-04 11:44 51.10260 16.88602 404 ft 18 kts 116°
2026-05-04 11:44 51.10201 16.88795 401 ft 20 kts 116°
2026-05-04 11:44 51.10139 16.88999 403 ft 21 kts 115°
2026-05-04 11:44 51.10073 16.89214 403 ft 21 kts 116°
2026-05-04 11:45 51.10002 16.89426 406 ft 22 kts 121°
2026-05-04 11:45 51.09925 16.89645 404 ft 23 kts 117°
2026-05-04 11:45 51.09908 16.89766 401 ft 5 kts 32°
2026-05-04 11:45 51.09918 16.89748 403 ft 3 kts 293°
2026-05-04 11:46 51.09924 16.89715 403 ft 4 kts 285°
2026-05-04 11:46 51.09963 16.89572 405 ft 34 kts 296°
2026-05-04 11:46 51.10183 16.88857 404 ft 108 kts 296°
2026-05-04 11:46 51.10587 16.87471 431 ft 162 kts 293°
2026-05-04 11:47 51.11073 16.85898 1158 ft 155 kts 296°
2026-05-04 11:47 51.11570 16.84319 1663 ft 167 kts 296°
2026-05-04 11:47 51.12132 16.82546 1932 ft 190 kts 296°
2026-05-04 11:47 51.12575 16.80434 2232 ft 215 kts 274°
2026-05-04 11:48 51.12626 16.77951 2626 ft 239 kts 271°
2026-05-04 11:48 51.12649 16.75178 3089 ft 259 kts 271°
2026-05-04 11:48 51.12667 16.72267 3821 ft 266 kts 271°
2026-05-04 11:48 51.12684 16.69310 4671 ft 268 kts 270°
2026-05-04 11:49 51.12700 16.66331 5527 ft 270 kts 270°
2026-05-04 11:49 51.12713 16.63332 6394 ft 271 kts 269°
2026-05-04 11:49 51.12726 16.60326 7216 ft 272 kts 269°
2026-05-04 11:49 51.12741 16.57301 8017 ft 275 kts 269°
2026-05-04 11:50 51.12754 16.54244 8816 ft 278 kts 268°
2026-05-04 11:50 51.12766 16.51155 9620 ft 281 kts 268°
2026-05-04 11:50 51.12779 16.48017 10239 ft 291 kts 268°
2026-05-04 11:50 51.12790 16.44675 10457 ft 314 kts 268°
2026-05-04 11:51 51.12800 16.41109 10836 ft 328 kts 268°
2026-05-04 11:51 51.12813 16.37448 11508 ft 332 kts 268°
2026-05-04 11:51 51.12826 16.33757 12260 ft 335 kts 268°
2026-05-04 11:51 51.12839 16.30042 13034 ft 337 kts 267°
2026-05-04 11:52 51.12851 16.26302 13778 ft 339 kts 267°
2026-05-04 11:52 51.12862 16.22538 14426 ft 342 kts 267°
2026-05-04 11:52 51.12874 16.18739 15061 ft 345 kts 268°
2026-05-04 11:52 51.12884 16.14903 15694 ft 348 kts 268°
2026-05-04 11:53 51.12890 16.11085 16325 ft 351 kts 268°
2026-05-04 11:53 51.12894 16.07174 16967 ft 355 kts 268°
2026-05-04 11:53 51.12897 16.03233 17600 ft 358 kts 268°
2026-05-04 11:53 51.12898 15.99250 18220 ft 362 kts 268°
2026-05-04 11:55 51.12855 15.70391 22054 ft 383 kts 268°
2026-05-04 11:55 51.12841 15.66139 22593 ft 386 kts 268°
2026-05-04 11:56 51.12867 15.61850 23110 ft 390 kts 272°
2026-05-04 11:56 51.13271 15.57563 23593 ft 395 kts 279°
2026-05-04 11:56 51.13828 15.53268 24013 ft 397 kts 279°
2026-05-04 11:56 51.14381 15.48955 24450 ft 399 kts 279°
2026-05-04 11:57 51.14931 15.44613 24886 ft 401 kts 279°
2026-05-04 11:57 51.15477 15.40250 25320 ft 402 kts 279°
2026-05-04 11:57 51.16019 15.35870 25755 ft 404 kts 279°
2026-05-04 11:57 51.16564 15.31474 26213 ft 405 kts 278°
2026-05-04 11:58 51.17108 15.27067 26656 ft 406 kts 278°
2026-05-04 11:58 51.17653 15.22645 27082 ft 408 kts 278°
2026-05-04 11:58 51.18203 15.18199 27485 ft 410 kts 279°
2026-05-04 11:58 51.18756 15.13733 27888 ft 412 kts 279°
2026-05-04 11:59 51.19309 15.09250 28289 ft 414 kts 278°
2026-05-04 11:59 51.19864 15.04735 28681 ft 416 kts 278°
2026-05-04 11:59 51.20406 15.00196 29061 ft 417 kts 277°
2026-05-04 11:59 51.20841 14.95619 29435 ft 419 kts 275°
2026-05-04 12:00 51.21178 14.91000 29790 ft 420 kts 274°
2026-05-04 12:00 51.21464 14.86356 30167 ft 422 kts 273°
2026-05-04 12:00 51.21738 14.81689 30493 ft 423 kts 273°
2026-05-04 12:00 51.22019 14.77012 30833 ft 425 kts 274°
2026-05-04 12:01 51.22318 14.72316 31159 ft 426 kts 274°
2026-05-04 12:01 51.22631 14.67620 31547 ft 426 kts 274°
2026-05-04 12:02 51.24533 14.39790 33966 ft 415 kts 274°
2026-05-04 12:03 51.25128 14.30801 33982 ft 403 kts 274°
2026-05-04 12:03 51.25699 14.21915 33983 ft 402 kts 274°
2026-05-04 12:04 51.26257 14.13094 33982 ft 402 kts 274°
2026-05-04 12:04 51.26820 14.04223 33993 ft 402 kts 274°
2026-05-04 12:05 51.27464 13.95355 33998 ft 403 kts 280°
2026-05-04 12:05 51.29627 13.87058 34000 ft 411 kts 300°
2026-05-04 12:06 51.31432 13.83479 34002 ft 417 kts 311°
2026-05-04 12:06 51.33589 13.80355 33992 ft 419 kts 314°
2026-05-04 12:06 51.37981 13.74198 33989 ft 420 kts 314°
2026-05-04 12:07 51.42375 13.68020 33990 ft 420 kts 314°
2026-05-04 12:07 51.46762 13.61830 33993 ft 420 kts 314°
2026-05-04 12:08 51.50438 13.56633 34024 ft 420 kts 314°
2026-05-04 12:08 51.54818 13.50421 34014 ft 420 kts 314°
2026-05-04 12:09 51.59168 13.44230 34002 ft 420 kts 313°
2026-05-04 12:09 51.63540 13.37999 33997 ft 420 kts 313°
2026-05-04 12:10 51.67912 13.31752 33997 ft 420 kts 313°
2026-05-04 12:10 51.72268 13.25492 33995 ft 420 kts 313°
2026-05-04 12:11 51.76624 13.19205 34003 ft 419 kts 311°
2026-05-04 12:11 51.80149 13.11937 34018 ft 407 kts 294°
2026-05-04 12:12 51.82382 13.03604 34007 ft 404 kts 288°
2026-05-04 12:12 51.84507 12.95190 33987 ft 404 kts 288°
2026-05-04 12:14 51.92964 12.61459 33999 ft 404 kts 287°
2026-05-04 12:15 51.95066 12.53018 33997 ft 404 kts 287°
2026-05-04 12:15 51.97147 12.44573 33997 ft 403 kts 287°
2026-05-04 12:16 51.99223 12.36118 33998 ft 403 kts 287°
2026-05-04 12:16 52.01285 12.27725 34015 ft 403 kts 287°
2026-05-04 12:17 52.03360 12.19265 34007 ft 403 kts 287°
2026-05-04 12:17 52.05421 12.10790 34001 ft 403 kts 287°
2026-05-04 12:18 52.07472 12.02314 34001 ft 403 kts 287°
2026-05-04 12:18 52.09522 11.93828 33999 ft 403 kts 287°
2026-05-04 12:19 52.11568 11.85335 34005 ft 403 kts 287°
2026-05-04 12:19 52.13608 11.76829 34004 ft 403 kts 286°
2026-05-04 12:20 52.15633 11.68331 34004 ft 402 kts 286°
2026-05-04 12:20 52.17651 11.59824 34002 ft 402 kts 286°
2026-05-04 12:21 52.19654 11.51327 33998 ft 402 kts 286°
2026-05-04 12:21 52.21663 11.42807 34018 ft 402 kts 286°
2026-05-04 12:22 52.23663 11.34341 33994 ft 397 kts 285°
2026-05-04 12:22 52.25630 11.25951 33987 ft 396 kts 285°
2026-05-04 12:23 52.27585 11.17550 33979 ft 396 kts 285°
2026-05-04 12:23 52.29536 11.09131 33987 ft 397 kts 285°
2026-05-04 12:24 52.31484 11.00693 33996 ft 397 kts 285°
2026-05-04 12:24 52.33425 10.92247 34012 ft 397 kts 285°
2026-05-04 12:25 52.35281 10.83764 34014 ft 393 kts 279°
2026-05-04 12:25 52.35714 10.75010 34014 ft 383 kts 261°
2026-05-04 12:26 52.34764 10.66475 34018 ft 382 kts 256°
2026-05-04 12:26 52.33729 10.57945 34012 ft 382 kts 257°
2026-05-04 12:27 52.32698 10.49425 34018 ft 382 kts 257°
2026-05-04 12:27 52.31651 10.40896 34030 ft 382 kts 256°
2026-05-04 12:28 52.30597 10.32377 33986 ft 383 kts 256°
2026-05-04 12:28 52.29542 10.23839 33976 ft 384 kts 256°
2026-05-04 12:29 52.28476 10.15292 33983 ft 384 kts 256°
2026-05-04 12:29 52.27403 10.06742 33988 ft 384 kts 256°
2026-05-04 12:30 52.26329 9.98254 33992 ft 384 kts 256°
2026-05-04 12:30 52.25248 9.89706 34012 ft 385 kts 258°
2026-05-04 12:31 52.24894 9.80956 34010 ft 387 kts 264°
2026-05-04 12:31 52.24665 9.72180 33997 ft 387 kts 264°
2026-05-04 12:32 52.24300 9.59024 33999 ft 387 kts 264°
2026-05-04 12:33 52.24053 9.50252 33998 ft 387 kts 264°
2026-05-04 12:33 52.23797 9.45910 33875 ft 382 kts 255°
2026-05-04 12:33 52.22872 9.41917 33415 ft 375 kts 239°
2026-05-04 12:33 52.21508 9.38330 32821 ft 369 kts 238°
2026-05-04 12:34 52.20146 9.34830 31781 ft 362 kts 238°
2026-05-04 12:34 52.18801 9.31392 30780 ft 357 kts 238°
2026-05-04 12:34 52.17474 9.28010 29796 ft 351 kts 238°
2026-05-04 12:34 52.16169 9.24685 28714 ft 346 kts 238°
2026-05-04 12:35 52.14883 9.21407 27624 ft 342 kts 237°
2026-05-04 12:35 52.13609 9.18152 26620 ft 339 kts 237°
2026-05-04 12:35 52.12352 9.14932 25651 ft 336 kts 237°
2026-05-04 12:35 52.11108 9.11735 24717 ft 333 kts 238°
2026-05-04 12:36 52.09877 9.08568 23804 ft 330 kts 237°
2026-05-04 12:36 52.08650 9.05428 22779 ft 327 kts 237°
2026-05-04 12:36 52.07427 9.02315 21855 ft 329 kts 237°
2026-05-04 12:36 52.06199 8.99196 21408 ft 326 kts 237°
2026-05-04 12:37 52.04997 8.96146 20965 ft 324 kts 237°
2026-05-04 12:37 52.03785 8.93071 20509 ft 322 kts 237°
2026-05-04 12:37 52.02579 8.90012 20079 ft 321 kts 237°
2026-05-04 12:37 52.01382 8.86978 19579 ft 317 kts 237°
2026-05-04 12:38 52.00177 8.83931 18886 ft 315 kts 237°
2026-05-04 12:38 51.99011 8.80988 18211 ft 314 kts 237°
2026-05-04 12:38 51.97833 8.78021 17448 ft 313 kts 237°
2026-05-04 12:38 51.96643 8.75023 16728 ft 310 kts 237°
2026-05-04 12:39 51.95495 8.72123 16231 ft 309 kts 237°
2026-05-04 12:39 51.94335 8.69200 15808 ft 307 kts 237°
2026-05-04 12:39 51.93179 8.66295 15393 ft 305 kts 237°
2026-05-04 12:39 51.92029 8.63414 14974 ft 304 kts 237°
2026-05-04 12:40 51.90885 8.60556 14563 ft 302 kts 237°
2026-05-04 12:40 51.89744 8.57711 14159 ft 300 kts 237°
2026-05-04 12:40 51.88609 8.54881 13754 ft 299 kts 237°
2026-05-04 12:40 51.87483 8.52069 13315 ft 297 kts 238°
2026-05-04 12:41 51.86362 8.49269 12874 ft 296 kts 237°
2026-05-04 12:41 51.85246 8.46480 12436 ft 294 kts 237°
2026-05-04 12:41 51.84137 8.43716 12011 ft 293 kts 237°
2026-05-04 12:41 51.83029 8.40958 11600 ft 291 kts 237°
2026-05-04 12:42 51.81926 8.38223 11202 ft 290 kts 237°
2026-05-04 12:42 51.80824 8.35493 10811 ft 289 kts 237°
2026-05-04 12:42 51.79728 8.32781 10423 ft 288 kts 237°
2026-05-04 12:42 51.78648 8.30109 10237 ft 279 kts 237°
2026-05-04 12:43 51.77598 8.27512 9985 ft 274 kts 237°
2026-05-04 12:43 51.76561 8.24949 9628 ft 272 kts 237°
2026-05-04 12:43 51.75528 8.22400 9242 ft 271 kts 237°
2026-05-04 12:43 51.74496 8.19858 8852 ft 271 kts 236°
2026-05-04 12:44 51.73463 8.17316 8479 ft 270 kts 236°
2026-05-04 12:44 51.72437 8.14788 8116 ft 269 kts 236°
2026-05-04 12:44 51.71412 8.12264 7762 ft 268 kts 236°
2026-05-04 12:44 51.70394 8.09757 7428 ft 267 kts 236°
2026-05-04 12:45 51.69376 8.07252 7148 ft 267 kts 236°
2026-05-04 12:45 51.68360 8.04759 6905 ft 266 kts 236°
2026-05-04 12:45 51.67345 8.02277 6602 ft 264 kts 236°
2026-05-04 12:45 51.66333 7.99804 6239 ft 264 kts 236°
2026-05-04 12:46 51.65327 7.97344 5899 ft 263 kts 236°
2026-05-04 12:46 51.64334 7.94915 5695 ft 255 kts 236°
2026-05-04 12:46 51.63373 7.92568 5574 ft 246 kts 236°
2026-05-04 12:46 51.62449 7.90321 5435 ft 234 kts 236°
2026-05-04 12:47 51.61577 7.88200 5220 ft 222 kts 236°
2026-05-04 12:47 51.60713 7.86261 5057 ft 207 kts 234°
2026-05-04 12:47 51.59949 7.84348 4757 ft 207 kts 238°
2026-05-04 12:47 51.59220 7.82320 4363 ft 212 kts 239°
2026-05-04 12:48 51.58492 7.80240 3929 ft 215 kts 240°
2026-05-04 12:48 51.57759 7.78141 3486 ft 216 kts 240°
2026-05-04 12:48 51.57135 7.75970 3054 ft 213 kts 258°
2026-05-04 12:48 51.56972 7.73681 3009 ft 204 kts 265°
2026-05-04 12:49 51.57205 7.71461 3001 ft 205 kts 297°
2026-05-04 12:49 51.58173 7.69774 3020 ft 209 kts 319°
2026-05-04 12:49 51.59357 7.68411 3012 ft 209 kts 323°
2026-05-04 12:49 51.60561 7.67102 3008 ft 209 kts 324°
2026-05-04 12:50 51.61767 7.65803 3011 ft 209 kts 328°
2026-05-04 12:50 51.63170 7.65264 3002 ft 213 kts
2026-05-04 12:50 51.64532 7.66153 3009 ft 216 kts 41°
2026-05-04 12:50 51.65547 7.67939 3017 ft 217 kts 52°
2026-05-04 12:51 51.66275 7.70012 3021 ft 206 kts 75°
2026-05-04 12:51 51.66360 7.72153 3012 ft 181 kts 102°
2026-05-04 12:51 51.65922 7.73943 3001 ft 167 kts 128°
2026-05-04 12:51 51.65132 7.75237 3003 ft 160 kts 149°
2026-05-04 12:52 51.64161 7.76120 3007 ft 161 kts 153°
2026-05-04 12:52 51.63177 7.76997 3008 ft 162 kts 153°
2026-05-04 12:52 51.62193 7.77877 3013 ft 162 kts 153°
2026-05-04 12:52 51.61209 7.78757 3006 ft 161 kts 153°
2026-05-04 12:53 51.60174 7.79342 2857 ft 157 kts 176°
2026-05-04 12:53 51.59102 7.79240 2766 ft 154 kts 198°
2026-05-04 12:53 51.58150 7.78505 2639 ft 153 kts 218°
2026-05-04 12:53 51.57445 7.77240 2484 ft 153 kts 241°
2026-05-04 12:54 51.56924 7.75750 2306 ft 153 kts 242°
2026-05-04 12:54 51.56402 7.74257 2089 ft 151 kts 241°
2026-05-04 12:54 51.55894 7.72805 1923 ft 146 kts 242°
2026-05-04 12:54 51.55413 7.71431 1720 ft 139 kts 241°
2026-05-04 12:55 51.54945 7.70095 1534 ft 136 kts 240°
2026-05-04 12:55 51.54482 7.68773 1344 ft 138 kts 240°
2026-05-04 12:55 51.54012 7.67435 1180 ft 137 kts 241°
2026-05-04 12:55 51.53549 7.66097 987 ft 137 kts 242°
2026-05-04 12:56 51.53089 7.64757 791 ft 136 kts 241°
2026-05-04 12:56 51.52621 7.63449 577 ft 134 kts 240°
2026-05-04 12:56 51.52159 7.62156 420 ft 132 kts 241°
2026-05-04 12:56 51.51774 7.61047 414 ft 86 kts 240°
2026-05-04 12:57 51.51605 7.60571 414 ft 33 kts 240°
2026-05-04 12:57 51.51535 7.60371 414 ft 24 kts 241°
2026-05-04 12:57 51.51449 7.60240 411 ft 17 kts 182°
2026-05-04 12:57 51.51364 7.60333 415 ft 14 kts 117°
2026-05-04 12:58 51.51388 7.60477 420 ft 14 kts 60°
2026-05-04 12:58 51.51436 7.60612 411 ft 15 kts 60°
2026-05-04 12:58 51.51492 7.60769 420 ft 17 kts 60°
2026-05-04 12:58 51.51543 7.60918 424 ft 13 kts 61°
2026-05-04 12:59 51.51584 7.61044 422 ft 13 kts 66°
2026-05-04 12:59 51.51590 7.61183 434 ft 13 kts 87°
2026-05-04 12:59 51.51629 7.61315 434 ft 14 kts 61°
2026-05-04 12:59 51.51676 7.61448 431 ft 10 kts 60°
2026-05-04 13:00 51.51682 7.61464 434 ft 0 kts 60°
2026-05-04 13:02 51.51678 7.61452 427 ft 4 kts 48°
2026-05-04 13:02 51.51662 7.61442 421 ft 4 kts 331°
2026-05-04 13:02 51.51643 7.61461 424 ft 1 kts 332°
2026-05-04 13:03 51.51642 7.61461 424 ft 0 kts 332°